User: anonymous   Login
Location: Huppendorf
(49.9333°N, 11.1500°E)
Time: 18:01:45
(UTC+00:00)
Language:

CZ-2C R/B - Orbit

View from above orbital plane
View from above orbital plane
View from above satellite
View from above satellite

Ground track
Ground track

The orbit data is extracted from the following two-line orbital elements,

1 28480U 04046B   20151.74072499 +.00000020 +00000-0 +23219-4 0  9990
2 28480 098.0796 188.0587 0140621 277.6307 196.5518 14.25722746807916
Epoch (UTC): 30 May 2020 17:46:38
Eccentricity: 0.0140621
inclination: 98.0796°
perigee height: 705 km
apogee height: 907 km
right ascension of ascending node: 188.0587°
argument of perigee: 277.6307°
revolutions per day: 14.25722746
mean anomaly at epoch: 196.5518°
orbit number at epoch: 80791

The dashed part of the orbit path shows where the satellite is in the earth's shadow,  

DLR